Vertical_Velocity
3 5 3 4 4 1 3 -1 -6 7 4 -7 6 7 -4 6 6 7 -1 -6 -3 -1
6 2 -5 9 -4 -3 1 4 -3 -4 -0 -6 5 -0 -0 2 4 1 -2 -3 1 3
-3 -9 -1 -4 -1 3 5 5 6 9 3 1 3 -0 -3 -0 2 -0 2 0 -1 3
-1 -0 -6 4 5 2 2 1 4 0 -3 -1 -1 -0 2 2 -0 3 -2 3 -3 3
11 4 13 2 -3 0 1 -5 -0 -3 -4 -4 -3 -2 1 -1 1 -2 -4 2 -6 3
2 1 -0 -3 -6 -4 -1 3 -1 -5 -5 -1 2 1 3 2 2 -3 1 -5 -0 0
9 -1 -2 1 -2 -3 -4 -5 -5 -1 2 -3 -7 -5 0 -1 -2 -3 -2 -3 1 -1
0 -0 -1 -15 -6 3 3 -1 -9 -5 -2 -0 -4 -4 -3 -3 -2 -3 0 -2 2 2
1 2 -1 4 6 -0 -0 -1 -2 -3 -1 -3 -4 -3 -4 -4 -2 -3 -1 1 1 -0
-3 -8 0 -1 -5 -1 -2 -4 -2 1 -3 -1 -5 -0 -0 -3 -4 -1 -0 3 3 2
-2 -0 -4 -3 -1 1 -1 -1 -2 -3 -4 0 1 1 2 2 -1 -1 -0 2 3 -1
-7 -7 -0 1 -5 -1 0 -2 -2 -3 -5 1 6 -2 -1 -3 -2 -2 2 1 2 -1
1 2 2 1 2 -1 -2 -6 3 -0 1 -3 5 2 -2 -0 -3 0 -1 4 2 4
-4 -3 -4 -4 1 -0 -0 -3 -0 -3 -0 5 -5 3 4 -1 -2 8 3 0 3 -1
Height
5694 5700 5703 5705 5708 5711 5711 5711 5715 5719 5721 5719 5721 5721 5721 5725 5728 5732 5734 5736 5736 5737
5682 5688 5692 5695 5697 5699 5701 5704 5705 5707 5711 5710 5711 5711 5711 5715 5720 5724 5725 5727 5726 5728
5671 5678 5681 5684 5686 5688 5692 5695 5697 5698 5701 5703 5703 5704 5705 5707 5710 5713 5717 5717 5717 5718
5658 5664 5670 5674 5676 5680 5682 5685 5687 5689 5691 5693 5694 5695 5696 5697 5699 5701 5705 5707 5707 5707
5649 5653 5656 5660 5666 5668 5669 5672 5675 5677 5679 5680 5682 5683 5683 5685 5687 5689 5692 5695 5695 5697
5642 5645 5649 5652 5655 5657 5659 5660 5662 5666 5668 5669 5669 5671 5672 5673 5675 5677 5678 5681 5684 5686
5632 5636 5637 5638 5643 5646 5649 5649 5651 5652 5654 5655 5657 5658 5658 5659 5660 5662 5665 5668 5671 5674
5622 5626 5629 5631 5633 5636 5636 5638 5640 5641 5641 5640 5641 5642 5643 5643 5645 5647 5650 5653 5658 5662
5615 5617 5619 5621 5622 5624 5624 5624 5625 5626 5626 5626 5628 5629 5629 5629 5631 5633 5636 5640 5645 5649
5603 5605 5609 5610 5611 5611 5610 5610 5610 5610 5610 5612 5614 5614 5615 5616 5618 5620 5624 5628 5632 5636
5595 5598 5600 5600 5602 5600 5599 5598 5597 5596 5596 5598 5600 5600 5601 5604 5606 5608 5611 5616 5620 5624
5587 5588 5589 5590 5591 5590 5590 5590 5589 5587 5586 5585 5586 5587 5589 5591 5593 5596 5600 5604 5607 5611
5579 5580 5581 5582 5582 5581 5581 5580 5579 5576 5575 5574 5574 5575 5577 5578 5580 5584 5588 5591 5595 5600
5570 5571 5571 5571 5571 5571 5569 5569 5569 5567 5565 5564 5564 5563 5565 5565 5568 5572 5576 5580 5584 5588